Location: *
(32.8667°N, 13.1833°E)
Time: 08:08:45
(UTC+00:00)

Cosmos 2279 Rocket - Pass Details

Date: 18 July 2019
Orbit: 965 x 978 km, 82.9° (Epoch: 25 August)

Event Time Altitude Azimuth Distance (km) Brightness Sun altitude
Exits shadow 21:31:06 77° 11° (NNE) 991 4.0 -30.9°
Drops below altitude 10° 21:36:49 10° 6° (N) 2,709 7.0 -31.4°
Sets 21:39:19 0° 7° (N) 3,660 7.8 -31.7°
